Weather in Newcastle upon Tyne

United Kingdom     54°58′19″N   1°37′20″W
temp.,
°C
wind,
m/s
gust,
m/s
humid.,
%
clouds,
%
prec.,
mm/h
press.,
hPa
HPBL,
m
19 april, mon
mon1901:00+6se23735 0.0 102464
04:00+5ssw22745 0.0 102432
07:00+5s23684 0.0 102389
10:00+11sse23485 0.0 1023466
13:00+13se34390 0.0 10211021
16:00+13se45480 0.0 1020998
19:00+11se35635 0.0 1020243
22:00+9s23797 0.0 102052
20 april, tue
tue2001:00+7s238290 0.0 101980
04:00+6ssw2385100 0.0 101953
07:00+7wsw1278100 0.0 101951
10:00+11nnw2361100 0.0 1020521
13:00+12ne2357100 0.0 10191096
16:00+11e226296 0.1 1019568
19:00+9ene2373100 0.1 1020284
22:00+7ne4790100 0.3 1022528
21 april, wed
wed2101:00+7n2586100 0.4 1023344
04:00+6nne586749 0.0 1024878
07:00+5n47635 0.0 1025895
10:00+7n57535 0.0 10261242
13:00+8nne45495 0.0 10261236
16:00+8ne444648 0.0 10261134
19:00+7ene224423 0.0 1026543
22:00+5s11565 0.0 102645
22 april, thu
thu2201:00+4ssw12635 0.0 102645
04:00+3w2270100 0.0 102653
07:00+3nw237249 0.0 1026117
10:00+9n234970 0.0 1027667
13:00+10ne344721 0.0 10281009
16:00+10ne435029 0.0 1028751
19:00+8ene23565 0.0 1029381
22:00+6s11695 0.0 103022
23 april, fri
fri2301:00+5ssw11695 0.0 103020
04:00+4sw227233 0.0 103035
07:00+5wsw12775 0.0 103084
10:00+11nw245410 0.0 1030584
13:00+13ne34505 0.0 10301000
16:00+11nne46535 0.0 1030634
19:00+9ne35577 0.0 1031446
22:00+7nnw117342 0.0 103333